Regional Weather Roundup
Issued by NWS

Home | Current Version | Previous Version | Text Only | Print | Product List | Glossary On
Versions: 1 2 3 4 5 6 7 8 9 10 11 12 13 14 15 16 17 18 19 20 21 22 23 24 25 26 27 28 29 30 31 32 33 34 35 36 37 38 39 40 41 42 43 44 45 46 47 48 49 50
136
ASHW40 PHFO 301443
RWRHI

WEATHER ROUNDUP FOR HAWAII
NATIONAL WEATHER SERVICE HONOLULU HI
400 AM HST THU MAR 30 2017

THIS IS AN AUTOMATED REPORT THAT HAS NOT BEEN QUALITY CONTROLLED.

NOTE..."FAIR" INDICATES FEW OR NO CLOUDS BELOW 12,000 FEET WITH NO
SIGNIFICANT WEATHER AND/OR OBSTRUCTIONS TO VISIBILITY.

* - THESE SITES REPORT LIMITED FIELDS

HIZ001>004-301500-
KAUAI-NIIHAU-

CITY           SKY/WX    TMP DP  RH WIND       PRES   REMARKS
LIHUE APT      CLOUDY    74  67  78 E7        30.08F
PORT ALLEN*      N/A     70 N/A N/A NE7         N/A
POIPU*           N/A     73 N/A N/A NE6G12      N/A
PRINCEVILLE*     N/A     68 N/A N/A S2          N/A
KOKOLE POINT*  NOT AVBL
MOLOAA DAIRY*    N/A     72  68  88 SE3G9       N/A
WAIMEA HTS*      N/A     70  59  68 N2          N/A
PUU OPAE*      NOT AVBL
PUU LUA*       NOT AVBL
MAKAHA RIDGE*    N/A     66  57  72 CALM        N/A
$$

HIZ005>011-301500-
OAHU-

CITY           SKY/WX    TMP DP  RH WIND       PRES   REMARKS
HONOLULU       PTCLDY    74  65  73 NE6       30.05F
KALAELOA       CLEAR     73  64  73 E6        30.07F
KANEOHE MCB    NOT AVBL
WHEELER FIELD  PTCLDY    64  62  94 CALM      30.06F
BELLOWS*         N/A    N/A N/A N/A E15         N/A
KAHUKU*          N/A    N/A N/A N/A NE7         N/A
WHEELER*         N/A    N/A N/A N/A NE1         N/A
WAIANAE HARBOR   N/A    N/A N/A N/A N3          N/A
DILLINGHAM*      N/A     61  59  94 W1          N/A
KAHUKU TRN*      N/A     70  68  94 W5G10       N/A
KAWAILOA*        N/A     70  64  83 E8G17       N/A
KII*             N/A     75  68  78 E13G20      N/A
MAKUA RANGE*     N/A     66  63  88 W6          N/A
OAHU FOREST NW NOT AVBL
SCHOFIELD BRK*   N/A     64  63  94 MISG        N/A
SCHOFIELD S*   NOT AVBL
WAIANAE VLY*   NOT AVBL
KUAOKALA*      NOT AVBL
HONOULIUULI*   NOT AVBL
MOKUOLOE IS*   NOT AVBL
PALEHUA*       NOT AVBL
WAIAWA PHB*    NOT AVBL
$$

HIZ012>013-301500-
MOLOKAI-

CITY           SKY/WX    TMP DP  RH WIND       PRES   REMARKS
MOLOKAI AIRPT  CLEAR     69  64  84 N3        30.07F
KALAUPAPA      NOT AVBL
MAKAPULAPAI*     N/A     73  66  78 E16G24      N/A
MOLOKAI 1*     NOT AVBL
PUU ALII*        N/A     58  58 100 NE3G15      N/A
$$

HIZ016-301500-
KAHOOLAWE-

CITY           SKY/WX    TMP DP  RH WIND       PRES   REMARKS
KAHOOLAWE*     NOT AVBL
HAKIOAWA*        N/A     70  68  93 MISG      30.46F
HONOKANAIA*      N/A     75  67  75 NE13G26     N/A
KANELOA*         N/A     72  66  83 E18G30    30.12F
KEALIALALO*    NOT AVBL
LUA MAKIKA*    NOT AVBL
$$

HIZ014>015-301500-
LANAI-

CITY           SKY/WX    TMP DP  RH WIND       PRES   REMARKS
LANAI CITY     MOCLDY    64  63  94 CALM      30.10F
LANAI 1*       NOT AVBL
$$

HIZ017>028-301500-
MAUI-

CITY           SKY/WX    TMP DP  RH WIND       PRES   REMARKS
KAHULUI        PTCLDY    71  62  73 SE7       30.05F
KAPALUA-W MAUI NOT AVBL
HANA AIRPORT   MOCLDY    73  68  83 E5        30.11R
HANA*            N/A     75 N/A N/A E7G14       N/A
HALEAKALA SUMM   N/A     41   5  22 E23G37      N/A
MAALAEA BAY*     N/A     72 N/A N/A N10         N/A
HALEAKALA*     NOT AVBL
KAUPO GAP*       N/A     70  64  83 NE6G18      N/A
KULA 1*          N/A     46  41  81 NE3         N/A
$$

HIZ023>026-301500-
BIG ISLAND OF HAWAII COAST AND LOWER SLOPES-

CITY           SKY/WX    TMP DP  RH WIND       PRES   REMARKS
KAILUA KONA    PTCLDY    72  62  71 E6        30.03F
HILO           PTCLDY    68  65  90 SW6       30.09S
HONOKAA*         N/A     64 N/A N/A VRB1        N/A
KAWAIHAE MWT*    N/A     73 N/A N/A E5          N/A
KAWAIHAE*        N/A     72 N/A N/A NE2       30.04S
SOUTH POINT*     N/A     68 N/A N/A N12G17      N/A
UPOLU AIRPORT* NOT AVBL
KAMUELA*       PTSUNNY   55  54  94 E7        30.14S
HAKALAU*         N/A     48  48 100 S3          N/A
KALOKO-HONOKO*   N/A    N/A N/A N/A NE6       30.02
PALI 2*          N/A     63  59  88 SW15G22     N/A
KEALAKOMO*       N/A     72  64  78 N10G18      N/A
KAUPULEHU*       N/A     66  55  68 SE7         N/A
KAPAPALA*        N/A     66  59  78 NE3G10      N/A
LOWER KAHUKU*    N/A     59  59 100 VRB2G12     N/A
PUHE CS*         N/A     72  59  64 E3G9        N/A
PUHO CS*         N/A     70  57  63 E3          N/A
PTA KEAMUKU*     N/A     55  52  88 CALM        N/A
WAIKOLOA*        N/A     64  57  77 SE7         N/A
$$

HIZ027>028-301500-
BIG ISLAND OF HAWAII INTERIOR AND SUMMMITS-

CITY           SKY/WX    TMP DP  RH WIND       PRES   REMARKS
BRADSHAW FIELD PTCLDY    43  37  80 N5        30.33S
MK VISITOR CEN   N/A     48  -9   9 E9          N/A
MAUNA KEA*       N/A     34 -20   9 NE17        N/A  WCI  23
MAUNA LOA*       N/A     39 -22   6 MISG        N/A
MAUNA LOA 1*   NOT AVBL
PTA KIPUKA*      N/A     46  45  93 NE1G8       N/A
PTA RANGE 17*    N/A     64  57  77 E9G18       N/A
PTA WEST*        N/A     54  50  87 E10         N/A
NENE CABIN*      N/A     48  46  93 E8G16       N/A
AHUMOA*          N/A     45  39  81 E7          N/A
PTA PORTABLE*  NOT AVBL
PUU MALI*        N/A     46  36  66 S5G10       N/A
$$

HIC003-301500-
NORTHWEST ISLANDS-

CITY           SKY/WX    TMP DP  RH WIND       PRES   REMARKS
MIDWAY ISLAND  CLOUDY    63  52  67 N7        30.12F
MIDWAY NOS*      N/A     64 N/A N/A MISG      30.10S
FRENCH FRIGATE NOT AVBL
$$

PHZ110>124-180-301500-
BUOY REPORTS

STATION/POSITION TIME  TEMP    WIND        PRES    WAVE   SWELL
                       AIR SEA DIR/SP/G            HT/PER HT/DIR
                 (UTC) (F)     (DEG/KT/KT) (MB)    (FT/S) (FT/D)
BUOY 51001       1420   75 76  120/  8/ 10 1017.8
BUOY 51101       1350   75 76  120/  6/  8 1018.5F   7/11   7/320
BUOY 51100       NOT AVBL
BUOY 51002       1420   77 78   70/ 16/ 19 1015.5
BUOY 51003       1350   76 78   60/ 12/ 14 1016.7F   7/13   7/310
BUOY 51004       1350      77   70/ 17/ 21 1016.0S  10/ 9   7/ 90
BARBERS PT BUOY  NOT AVBL
WAIMEA BAY BUOY  1402      76                N/A     6/13   5/310
KAILUA BAY BUOY  1404      76                N/A     6/10   2/ 70
LANAI BUOY       1415      78                N/A     4/13   3/240
BARBERS PT 2     NOT AVBL
PAUWELA MAUI     1409      76                N/A     6/13   3/330
HILO             1412      77                N/A     9/10   5/340
KANEOHE BAY BUOY 1425      75                N/A     5/ 9   2/350
HANALEI KAUAI    1422      77                N/A     7/13   5/320
KAHULUI HARBOR   1406   72 77   80/  3/  5 1017.6
HONOLULU HARBOR  1406   76 78  110/  4/  5 1018.5
KILO NALU        NOT AVBL
HILO HARBOR      1406   69 76  200/  4/  5 1018.5
MOKUOLOE         1336   75 79   90/ 10/ 13 1018.1F
NAWILIWILI       1406   74 78   60/  5/  7 1018.1
WHOTS BUOY       NOT AVBL
BUOY 51028       NOT AVBL
$$

......................KEY........................................
  SKY/WX - SKY CONDITIONS/PRESENT WEATHER
  TMP    - TEMPERATURE IN FAHRENHEIT
  DWPT   - DEWPOINT IN FAHRENHEIT
  RH     - RELATIVE HUMIDITY IN PERCENT
  WIND   - DIRECTION AND SPEED /MPH FOR ISLANDS...KTS FOR BUOYS/
  PRES   - MEAN SEA LEVEL PRESSURE IN INCHES OF HG
  VSB    - VISIBILITY IN MILES
  HX     - HEAT INDEX
  WCI    - WIND CHILL INDEX
  VRB    - VARIABLE WIND DIRECTION
  N/A    - NOT AVAILABLE




USA.gov is the U.S. government's official web portal to all federal, state and local government web resources and services.